Location: Asheville, NC
(35.6000°N, 82.5500°W)
Time: 02:32:24
(UTC-04:00)

YUBILEINY - Pass Details

Date: 11 March 2018
Orbit: 1479 x 1508 km, 82.5° (Epoch: 20 June)

Event Time Altitude Azimuth Distance (km) Brightness Sun altitude
Rises 06:27:24 0° 353° (N) 4,613 ? -16.9°
Reaches altitude 10° 06:30:17 10° 355° (N) 3,633 ? -16.3°
Maximum altitude 06:39:03 82° 84° (E) 1,506 ? -14.5°
Drops below altitude 10° 06:47:50 10° 172° (S) 3,637 ? -12.8°
Sets 06:50:42 0° 173° (S) 4,618 ? -12.2°
